Weather History for KFVE - February, 2013

Change the Weather History Date:

Sunday, February 3, 2013

  Actual Average Record
Temperature  
Mean Temperature 7 °F 10 °F  
Max Temperature 18 °F 18 °F 37 °F (1998)
Min Temperature -4 °F 1 °F -13 °F (2015)
Degree Days  
Heating Degree Days 58    
Month to date heating degree days 186  
Since 1 July heating degree days 5293  
Cooling Degree Days 0    
Month to date cooling degree days 0  
Year to date cooling degree days 0  
Moisture  
Dew Point 0 °F    
Average Humidity 74    
Maximum Humidity 85    
Minimum Humidity 56    
Precipitation  
Precipitation T in 0.02 in 0.28 in (1999)
Month to date precipitation T 0.06  
Year to date precipitation 0.98 1.82  
Sea Level Pressure  
Sea Level Pressure 29.97 in    
Wind  
Wind Speed 6 mph (ENE)    
Max Wind Speed 14 mph    
Max Gust Speed 20 mph    
Visibility 8 miles    
Events Snow    
T = Trace of Precipitation, MM = Missing Value Source: NWS Daily Summary

Daily Weather History Graph

Daily Weather History Graph

Search for Another Location

Airport or City:

Trip Planner

Search our weather history database for the weather conditions in past years. The results will help you decide how hot, cold, wet, or windy it might be!

Date:

Astronomy

Feb. 03, 2013 Rise Set
Actual Time 6:56 AM EST 4:38 PM EST
Civil Twilight 6:23 AM EST 5:11 PM EST
Nautical Twilight 5:46 AM EST 5:47 PM EST
Astronomical Twilight 5:11 AM EST 6:23 PM EST
Moon 12:20 AM EST (2/3) 10:11 AM EST (2/3)
Length of Visible Light 10h 47m
Length of Day
9h 42m
Waning Gibbous, 49% of the Moon is Illuminated
Feb 3
Waning Gibbous
Feb 10
New
Feb 17
First Quarter
Feb 25
Full
Mar 4
Last Quarter

Hourly Weather History & Observations

Time (EST) Temp. Windchill Dew Point Humidity Pressure Visibility Wind Dir Wind Speed Gust Speed Precip Events Conditions
12:53 AM -2.0 °F -12.2 °F -8.0 °F 76% 30.09 in 5.0 mi East 4.6 mph - 0.00 in   Haze
1:43 AM -2.2 °F - -7.6 °F 78% 30.02 in 2.0 mi Calm Calm - 0.00 in Snow Light Snow
1:53 AM -2.0 °F - -8.0 °F 76% 30.10 in 4.0 mi Calm Calm - 0.00 in Snow Light Snow
2:53 AM -2.9 °F -13.3 °F -7.1 °F 82% 30.09 in 10.0 mi East 4.6 mph - 0.00 in   Overcast
3:53 AM -2.9 °F - -7.1 °F 82% 30.09 in 10.0 mi Calm Calm - N/A   Overcast
4:38 AM -2.2 °F -15.6 °F -7.6 °F 78% 30.02 in 10.0 mi East 6.9 mph - N/A   Overcast
4:53 AM -2.0 °F -15.4 °F -7.1 °F 79% 30.10 in 9.0 mi East 6.9 mph - N/A   Overcast
5:36 AM -2.2 °F -10.4 °F -5.8 °F 85% 30.02 in 10.0 mi ENE 3.5 mph - N/A   Overcast
5:53 AM -0.9 °F -11.0 °F -6.0 °F 79% 30.10 in 10.0 mi ENE 4.6 mph - N/A   Overcast
6:53 AM -2.0 °F -13.9 °F -6.0 °F 83% 30.10 in 10.0 mi East 5.8 mph - N/A   Mostly Cloudy
7:53 AM -0.9 °F -12.7 °F -6.0 °F 79% 30.10 in 10.0 mi East 5.8 mph - N/A   Clear
8:37 AM 1.4 °F -11.3 °F -5.8 °F 72% 30.02 in 8.0 mi East 6.9 mph - N/A   Scattered Clouds
8:45 AM -0.4 °F -14.7 °F -5.8 °F 78% 30.01 in 5.0 mi East 8.1 mph - N/A   Haze
8:53 AM 1.0 °F -14.0 °F -4.0 °F 79% 30.09 in 6.0 mi East 9.2 mph - N/A   Haze
9:53 AM 3.9 °F -10.4 °F -2.0 °F 76% 30.07 in 9.0 mi East 9.2 mph - N/A   Overcast
10:53 AM 7.0 °F 0.1 °F 1.0 °F 77% 30.05 in 5.0 mi East 3.5 mph - 0.00 in   Haze
11:53 AM 10.9 °F 4.7 °F 3.9 °F 73% 30.02 in 10.0 mi ESE 3.5 mph - 0.00 in   Overcast
12:23 PM 12.2 °F 4.3 °F 3.2 °F 67% 29.94 in 10.0 mi Variable 4.6 mph - N/A   Scattered Clouds
12:53 PM 12.9 °F - 3.9 °F 67% 29.99 in 10.0 mi Calm Calm - N/A   Clear
1:53 PM 15.1 °F 9.4 °F 5.0 °F 64% 29.96 in 10.0 mi SE 3.5 mph - N/A   Clear
2:53 PM 17.1 °F 10.0 °F 5.0 °F 59% 29.94 in 10.0 mi East 4.6 mph - N/A   Clear
3:53 PM 17.1 °F 10.0 °F 3.9 °F 56% 29.92 in 10.0 mi NNE 4.6 mph - N/A   Clear
4:53 PM 17.1 °F 5.8 °F 3.9 °F 56% 29.91 in 10.0 mi ENE 9.2 mph - N/A   Overcast
5:42 PM 15.8 °F 3.4 °F 6.8 °F 68% 29.84 in 4.0 mi ENE 10.4 mph - N/A Snow Light Snow
5:53 PM 15.1 °F 4.2 °F 7.0 °F 70% 29.90 in 4.0 mi NE 8.1 mph - 0.00 in Snow Light Snow
6:06 PM 15.8 °F 3.4 °F 6.8 °F 68% 29.83 in 7.0 mi NE 10.4 mph - 0.00 in Snow Light Snow
6:53 PM 12.9 °F -0.9 °F 5.0 °F 71% 29.88 in 10.0 mi ENE 11.5 mph - 0.00 in   Overcast
7:53 PM 10.0 °F -3.7 °F 3.0 °F 73% 29.87 in 10.0 mi NE 10.4 mph - N/A   Clear
8:53 PM 9.0 °F -3.2 °F 3.0 °F 77% 29.84 in 10.0 mi NNE 8.1 mph - N/A   Clear
9:53 PM 9.0 °F -3.2 °F 3.0 °F 77% 29.81 in 10.0 mi North 8.1 mph - N/A   Overcast
10:53 PM 9.0 °F -3.2 °F 3.9 °F 80% 29.79 in 4.0 mi North 8.1 mph - 0.00 in Snow Light Snow
11:26 PM 8.6 °F -4.7 °F 5.0 °F 85% 29.69 in 2.5 mi North 9.2 mph - 0.00 in Snow Light Snow
11:53 PM 9.0 °F -5.1 °F 5.0 °F 84% 29.73 in 4.0 mi NNW 10.4 mph - 0.00 in Snow Light Snow